User: anonymous   Login
Location: Oshawa
(43.9000°N, 78.8670°W)
Time: 04:42:57
(UTC-05:00)
Language:

ITAMSAT 1 - Orbit

View from above orbital plane
View from above orbital plane
View from above satellite
View from above satellite

Ground track
Ground track

The orbit data is extracted from the following two-line orbital elements,

1 22826U 93061D   16042.85797611  .00000093  00000-0  53264-4 0  9992
2 22826  98.7375 358.5769 0008339 325.0967  34.9668 14.30259809167347
Epoch (UTC): 11 February 2016 20:35:29
Eccentricity: 0.0008339
inclination: 98.7375°
perigee height: 785 km
apogee height: 797 km
right ascension of ascending node: 358.5769°
argument of perigee: 325.0967°
revolutions per day: 14.30259809
mean anomaly at epoch: 34.9668°
orbit number at epoch: 16734

The dashed part of the orbit path shows where the satellite is in the earth's shadow,  

DLR